User: anonymous   Login
Location: Zlin
(49.2330°N, 17.6670°E)
Time: 04:40:24
(UTC+02:00)
Language:

ISS - Orbit

View from above orbital plane
View from above orbital plane
View from above satellite
View from above satellite

Ground track
Ground track

The orbit data is extracted from the following two-line orbital elements,

1 25544U 98067A   17089.51780096  .00016717  00000-0  10270-3 0  9031
2 25544  51.6385  70.4384 0007831 355.9425   4.1663 15.54274498  9512
Epoch (UTC): 30 March 2017 12:25:38
Eccentricity: 0.0007831
inclination: 51.6385°
perigee height: 399 km
apogee height: 409 km
right ascension of ascending node: 70.4384°
argument of perigee: 355.9425°
revolutions per day: 15.54274498
mean anomaly at epoch: 4.1663°
orbit number at epoch: 951

The dashed part of the orbit path shows where the satellite is in the earth's shadow,  

DLR